2021/09/02, +9, 136.10,  34.85, 385
00:00:00,  964.7,   27.8,   89.2,   -0.00,   -0.00,    0.0,  -45.3
00:00:10,  965.0,   26.4,   89.4,   -0.00,   -0.00,    0.0,  -48.5
00:00:20,  965.2,   25.7,   90.0,   -0.00,   -0.00,    0.0,  -43.8
00:00:30,  964.7,   18.5,   90.3,    0.02,   -0.21,    0.0,  -28.7
00:00:40,  964.7,   28.4,   90.5,    0.00,   -0.22,    0.0,  -25.2
00:00:50,  964.7,   27.3,   90.6,    0.00,   -0.00,    0.0,  -55.4
00:01:00,  965.2,   23.8,   90.6,    0.00,   -0.00,    0.0,  -25.6
00:01:10,  965.0,   25.9,   90.3,   -0.00,   -0.00,    0.0,  -47.4
00:01:20,  965.1,   23.2,   89.5,   -0.00,   -0.00,    0.0,  -41.2
00:01:30,  964.8,   27.3,   88.9,    0.00,   -0.00,    0.0,  -50.9
00:01:40,  965.4,   24.2,   88.3,   -0.00,   -0.00,    0.0,  -52.6
00:01:50,  964.7,   27.1,   89.1,   -0.00,   -0.00,    0.0,  -54.3
00:02:00,  964.6,   27.5,   88.8,    0.00,   -0.00,    0.0,  -38.8
00:02:10,  964.7,   27.7,   87.8,    0.00,   -0.00,    0.0,  -38.1
00:02:20,  964.6,   26.7,   87.1,    0.00,   -0.00,    0.0,  -23.9
00:02:30,  964.7,   26.3,   86.4,   -0.00,   -0.00,    0.0,  -37.7
00:02:40,  964.7,   27.4,   85.9,    0.00,   -0.00,    0.0,  -49.8
00:02:50,  964.7,   27.6,   85.4,   -0.00,   -0.00,    0.0,  -53.9
00:03:00,  964.8,   23.4,   85.3,   -0.00,   -0.00,    0.0,  -35.8
00:03:10,  965.2,   23.2,   85.2,    0.00,   -0.02,    0.0,  -23.9
00:03:20,  964.8,   26.5,   85.2,    0.00,   -0.00,    0.0,  -27.1
00:03:30,  964.6,   26.9,   85.2,    0.00,   -0.00,    0.0,  -23.1
00:03:40,  964.8,   16.5,   85.1,    0.00,   -0.00,    0.0,  -33.4
00:03:50,  964.7,   28.6,   85.0,    0.01,   -0.25,    0.0,  -26.9
00:04:00,  964.9,   23.9,   84.8,    0.00,   -0.01,    0.0,  -32.1
00:04:10,  964.9,   27.5,   84.8,   -0.00,   -0.00,    0.0,  -30.8
00:04:20,  964.6,   27.6,   84.5,    0.00,   -0.00,    0.0,  -54.1
00:04:30,  965.3,   21.7,   84.4,    0.02,   -0.27,    0.0,  -26.5
00:04:40,  965.0,   22.9,   84.7,    0.00,   -0.21,    0.0,  -24.8
00:04:50,  964.6,   27.5,   85.0,   -0.00,   -0.00,    0.0,  -41.0
00:05:00,  964.7,   27.8,   86.2,   -0.01,   -0.35,    0.0,  -40.1
00:05:10,  964.6,   26.5,   86.9,    0.00,   -0.00,    0.0,  -24.6
00:05:20,  965.0,   23.5,   87.3,    0.00,   -0.01,    0.0,  -24.6
00:05:30,  964.6,   16.6,   87.4,    0.00,   -0.00,    0.0,  -31.5
00:05:40,  965.3,   22.3,   87.4,   -0.00,   -0.00,    0.0,  -45.9
00:05:50,  965.1,   25.9,   87.5,    0.00,   -0.00,    0.0,  -55.6
00:06:00,  965.0,   27.9,   87.6,    0.05,   -0.48,    0.0,  -32.8
00:06:10,  964.8,   27.3,   87.6,    0.02,   -0.31,    0.0,  -27.8
00:06:20,  964.8,   25.5,   86.9,    0.04,   -0.21,    0.0,  -23.9
00:06:30,  964.8,   26.0,   86.7,   -0.00,   -0.24,    0.0,  -26.5
00:06:40,  964.5,   15.1,   86.5,    0.00,   -0.00,    0.0,  -27.4
00:06:50,  965.2,   24.2,   86.3,   -0.00,   -0.00,    0.0,  -44.0
00:07:00,  965.1,   23.4,   86.0,   -0.00,   -0.00,    0.0,  -55.2
00:07:10,  964.8,   28.4,   86.0,    0.05,   -0.44,    0.0,  -37.3
00:07:20,  965.1,   27.8,   86.5,    0.00,   -0.23,    0.0,  -26.5
00:07:30,  964.8,   27.4,   87.4,   -0.00,   -0.00,    0.0,  -29.5
00:07:40,  964.9,   26.3,   87.7,   -0.00,   -0.00,    0.0,  -58.0
00:07:50,  964.7,   27.3,   88.0,    0.00,   -0.00,    0.0,  -47.8
00:08:00,  964.6,   24.1,   88.2,   -0.00,   -0.00,    0.0,  -50.2
00:08:10,  964.5,   15.0,   88.5,    0.00,   -0.00,    0.0,  -37.3
00:08:20,  964.9,   23.8,   88.7,    0.05,   -0.40,    0.0,  -33.6
00:08:30,  964.6,   26.8,   89.0,   -0.00,   -0.00,    0.0,  -51.7
00:08:40,  964.5,   26.5,   89.3,    0.00,   -0.00,    0.0,  -27.8
00:08:50,  964.7,   23.8,   89.5,   -0.00,   -0.07,    0.0,  -53.7
00:09:00,  964.7,   27.4,   89.1,   -0.00,   -0.00,    0.0,  -34.5
00:09:10,  965.0,   25.1,   89.0,    0.03,   -0.20,    0.0,  -25.9
00:09:20,  964.6,   27.4,   89.3,    0.00,   -0.00,    0.0,  -36.4
00:09:30,  964.7,   26.0,   89.6,   -0.00,   -0.07,    0.0,  -50.6
00:09:40,  964.5,   27.8,   89.6,    0.00,   -0.00,    0.0,  -40.1
00:09:50,  964.5,   27.8,   89.7,    0.00,   -0.00,    0.0,  -52.8
00:10:00,  964.7,   27.9,   89.8,    0.00,   -0.00,    0.0,  -42.7
00:10:10,  964.9,   24.8,   89.6,    0.04,   -0.38,    0.0,  -26.9
00:10:20,  965.1,   21.9,   88.6,    0.00,   -0.17,    0.0,  -24.8
00:10:30,  964.6,   19.3,   88.0,   -0.00,   -0.07,    0.0,  -34.9
00:10:40,  964.6,   15.1,   87.5,    0.00,   -0.00,    0.0,  -33.8
00:10:50,  964.6,   26.9,   87.0,   -0.00,   -0.00,    0.0,  -49.6
00:11:00,  964.7,   27.3,   87.0,    0.02,   -0.37,    0.0,  -36.4
00:11:10,  964.5,   26.6,   86.7,   -0.00,   -0.00,    0.0,  -49.8
00:11:20,  965.2,   23.8,   86.4,    0.00,   -0.07,    0.0,  -29.5
00:11:30,  964.9,   27.7,   86.0,   -0.00,   -0.19,    0.0,  -27.4
00:11:40,  964.6,   23.5,   85.8,    0.00,   -0.00,    0.0,  -34.3
00:11:50,  964.6,   27.3,   85.8,   -0.00,   -0.02,    0.0,  -42.0
00:12:00,  965.1,   22.9,   86.0,    0.00,   -0.00,    0.0,  -30.2
00:12:10,  964.6,   27.8,   86.2,    0.00,   -0.00,    0.0,  -35.1
00:12:20,  964.7,   24.7,   85.7,   -0.00,   -0.05,    0.0,  -53.0
00:12:30,  964.6,   27.4,   85.1,    0.00,   -0.00,    0.0,  -52.1
00:12:40,  964.9,   27.2,   84.9,    0.04,   -0.39,    0.0,  -31.0
00:12:50,  964.6,   25.6,   84.8,    0.02,   -0.12,    0.0,  -19.6
00:13:00,  965.1,   22.2,   84.7,   -0.00,   -0.07,    0.0,  -24.8
00:13:10,  965.2,   23.4,   84.6,    0.00,   -0.00,    0.0,  -25.0
00:13:20,  965.1,   21.7,   84.5,    0.00,   -0.03,    0.0,  -26.9
00:13:30,  965.1,   23.3,   84.4,    0.00,   -0.15,    0.0,  -26.3
00:13:40,  964.6,   15.2,   84.3,    0.00,   -0.00,    0.0,  -30.8
00:13:50,  964.6,   27.3,   84.3,    0.00,   -0.00,    0.0,  -48.7
00:14:00,  965.1,   23.9,   84.2,   -0.00,   -0.02,    0.0,  -56.7
00:14:10,  964.6,   26.3,   84.8,    0.02,   -0.14,    0.0,  -22.4
00:14:20,  964.9,   27.5,   84.7,   -0.00,   -0.00,    0.0,  -34.5
00:14:30,  964.7,   27.6,   84.5,   -0.00,   -0.00,    0.0,  -38.4
00:14:40,  965.0,   26.7,   84.4,   -0.00,   -0.00,    0.0,  -48.5
00:14:50,  965.1,   24.2,   84.4,   -0.00,   -0.00,    0.0,  -56.2
00:15:00,  965.3,   25.5,   84.4,   -0.00,   -0.00,    0.0,  -54.1
00:15:10,  964.6,   26.3,   85.5,   -0.00,   -0.00,    0.0,  -51.9
00:15:20,  964.7,   27.6,   86.4,   -0.00,   -0.39,    0.0,  -39.6
00:15:30,  965.0,   25.0,   86.6,    0.06,   -0.35,    0.0,  -25.4
00:15:40,  964.9,   23.5,   86.6,    0.02,   -0.17,    0.0,  -31.9
00:15:50,  964.6,   27.1,   86.7,   -0.00,   -0.00,    0.0,  -40.1
00:16:00,  964.6,   18.0,   86.8,    0.03,   -0.25,    0.0,  -33.0
00:16:10,  965.2,   26.4,   86.8,   -0.00,   -0.00,    0.0,  -39.2
00:16:20,  964.9,   23.6,   87.1,    0.06,   -0.49,    0.0,  -28.0
00:16:30,  964.6,   13.9,   87.4,    0.00,   -0.00,    0.0,  -36.0
00:16:40,  964.7,   23.9,   88.1,   -0.00,   -0.07,    0.0,  -40.3
00:16:50,  964.7,   17.9,   88.4,    0.00,   -0.00,    0.0,  -31.0
00:17:00,  964.9,   27.1,   88.6,    0.03,   -0.32,    0.0,  -28.2
00:17:10,  964.6,   27.8,   88.8,    0.00,   -0.00,    0.0,  -35.6
00:17:20,  964.7,   27.5,   89.0,    0.00,   -0.48,    0.0,  -37.7
00:17:30,  965.3,   23.1,   89.2,    0.05,   -0.37,    0.0,  -25.2
00:17:40,  964.6,   27.1,   89.6,    0.00,   -0.00,    0.0,  -23.1
00:17:50,  964.6,   23.2,   89.8,   -0.00,   -0.23,    0.0,  -22.4
00:18:00,  964.6,   14.6,   90.1,    0.00,   -0.00,    0.0,  -28.9
00:18:10,  964.6,   18.8,   90.4,    0.00,   -0.00,    0.0,  -32.1
00:18:20,  964.6,   28.0,   90.6,    0.00,   -0.00,    0.0,  -25.0
00:18:30,  964.5,   27.8,   90.8,    0.00,   -0.00,    0.0,  -41.2
00:18:40,  964.6,   27.0,   91.0,   -0.00,   -0.00,    0.0,  -54.7
00:18:50,  964.6,   28.2,   90.9,    0.00,   -0.00,    0.0,  -25.0
00:19:00,  965.0,   26.2,   89.9,   -0.00,   -0.00,    0.0,  -37.7
00:19:10,  964.5,   14.8,   90.1,    0.00,   -0.00,    0.0,  -31.2
00:19:20,  964.5,   23.8,   90.6,    0.06,   -0.45,    0.0,  -23.1
00:19:30,  964.7,   27.3,   90.8,    0.02,   -0.51,    0.0,  -41.6
00:19:40,  964.4,   26.0,   90.7,    0.01,   -0.04,    0.0,  -26.7
00:19:50,  964.6,   25.2,   90.9,   -0.00,   -0.26,    0.0,  -24.6
00:20:00,  964.6,   16.4,   91.0,    0.00,   -0.00,    0.0,  -34.7
00:20:10,  965.0,   25.9,   91.2,   -0.00,   -0.00,    0.0,  -54.1
00:20:20,  965.0,   23.9,   91.3,   -0.00,   -0.00,    0.0,  -51.1
00:20:30,  964.8,   23.1,   91.3,   -0.00,   -0.00,    0.0,  -62.1
00:20:40,  964.8,   27.3,   91.3,   -0.00,   -0.00,    0.0,  -37.3
00:20:50,  964.4,   15.2,   91.0,    0.00,   -0.00,    0.0,  -33.8
00:21:00,  964.7,   21.9,   91.0,   -0.00,   -0.25,    0.0,  -26.5
00:21:10,  964.6,   26.4,   91.2,    0.00,   -0.00,    0.0,  -26.3
00:21:20,  964.5,   28.1,   91.4,    0.00,   -0.00,    0.0,  -26.5
00:21:30,  964.4,   17.1,   91.5,    0.00,   -0.00,    0.0,  -32.8
00:21:40,  964.9,   23.1,   91.7,   -0.00,   -0.00,    0.0,  -59.9
00:21:50,  964.6,   27.8,   91.8,    0.01,   -0.24,    0.0,  -42.2
00:22:00,  964.4,   20.9,   91.8,    0.00,   -0.00,    0.0,  -32.5
00:22:10,  964.4,   28.2,   91.9,    0.00,   -0.12,    0.0,  -57.8
00:22:20,  965.0,   23.6,   91.9,    0.06,   -0.48,    0.0,  -28.0
00:22:30,  964.5,   18.0,   92.0,    0.01,   -0.08,    0.0,  -33.4
00:22:40,  964.5,   27.4,   92.1,    0.00,   -0.47,    0.0,  -46.1
00:22:50,  964.3,   26.6,   92.1,   -0.00,   -0.00,    0.0,  -48.9
00:23:00,  964.4,   26.3,   92.2,   -0.00,   -0.00,    0.0,  -51.3
00:23:10,  964.4,   27.8,   92.4,    0.00,   -0.00,    0.0,  -37.5
00:23:20,  964.6,   27.0,   92.3,    0.03,   -0.34,    0.0,  -29.1
00:23:30,  964.5,   25.7,   92.1,    0.02,   -0.15,    0.0,  -27.8
00:23:40,  964.5,   26.7,   92.1,    0.00,   -0.00,    0.0,  -23.7
00:23:50,  964.9,   23.2,   91.8,    0.00,   -0.16,    0.0,  -26.7
00:24:00,  964.5,   22.3,   91.7,   -0.00,   -0.00,    0.0,  -38.8
00:24:10,  964.4,   26.6,   91.4,   -0.00,   -0.00,    0.0,  -42.9
00:24:20,  965.1,   23.9,   90.9,    0.06,   -0.48,    0.0,  -27.6
00:24:30,  964.4,   15.5,   90.7,    0.00,   -0.00,    0.0,  -31.0
00:24:40,  964.9,   25.4,   90.2,   -0.00,   -0.04,    0.0,  -62.3
00:24:50,  964.5,   27.7,   90.0,    0.00,   -0.00,    0.0,  -25.6
00:25:00,  965.0,   22.7,   90.2,   -0.00,   -0.00,    0.0,  -41.2
00:25:10,  964.3,   27.6,   90.2,    0.00,   -0.00,    0.0,  -60.1
00:25:20,  964.7,   25.0,   89.7,   -0.00,   -0.00,    0.0,  -51.5
00:25:30,  965.1,   24.8,   89.2,    0.05,   -0.34,    0.0,  -25.6
00:25:40,  964.5,   27.2,   89.1,   -0.00,   -0.00,    0.0,  -56.7
00:25:50,  964.5,   23.2,   89.4,   -0.00,   -0.25,    0.0,  -27.6
00:26:00,  964.3,   27.8,   89.5,   -0.00,   -0.00,    0.0,  -59.5
00:26:10,  964.8,   21.8,   89.5,   -0.00,   -0.25,    0.0,  -25.0
00:26:20,  964.7,   23.1,   89.5,   -0.00,   -0.00,    0.0,  -38.8
00:26:30,  964.8,   25.0,   89.7,    0.07,   -0.47,    0.0,  -28.9
00:26:40,  964.7,   24.3,   89.9,    0.00,   -0.00,    0.0,  -34.3
00:26:50,  964.6,   28.0,   90.2,   -0.00,   -0.10,    0.0,  -57.5
00:27:00,  965.1,   23.4,   90.2,    0.05,   -0.33,    0.0,  -25.6
00:27:10,  964.7,   18.8,   90.2,    0.00,   -0.00,    0.0,  -34.5
00:27:20,  964.6,   27.3,   90.2,    0.00,   -0.00,    0.0,  -58.2
00:27:30,  965.2,   24.5,   89.9,    0.05,   -0.35,    0.0,  -25.9
00:27:40,  964.6,   27.2,   89.8,   -0.00,   -0.00,    0.0,  -50.6
00:27:50,  964.6,   26.5,   89.8,   -0.00,   -0.00,    0.0,  -48.3
00:28:00,  964.8,   27.2,   89.7,    0.01,   -0.49,    0.0,  -39.6
00:28:10,  964.8,   27.0,   89.6,    0.04,   -0.40,    0.0,  -33.8
00:28:20,  964.7,   27.7,   89.6,    0.04,   -0.43,    0.0,  -34.0
00:28:30,  965.2,   24.6,   89.6,    0.05,   -0.33,    0.0,  -25.0
00:28:40,  964.6,   25.7,   89.6,    0.02,   -0.11,    0.0,  -23.7
00:28:50,  964.5,   26.3,   89.8,    0.00,   -0.00,    0.0,  -30.2
00:29:00,  964.9,   22.2,   90.0,    0.00,   -0.00,    0.0,  -31.2
00:29:10,  964.6,   25.8,   90.2,    0.01,   -0.06,    0.0,  -26.9
00:29:20,  965.1,   23.5,   90.3,    0.05,   -0.36,    0.0,  -27.4
00:29:30,  965.2,   24.1,   90.5,    0.05,   -0.36,    0.0,  -24.8
00:29:40,  964.5,   27.0,   90.6,    0.00,   -0.00,    0.0,  -24.1
00:29:50,  964.9,   24.1,   90.5,    0.00,   -0.00,    0.0,  -25.9
00:30:00,  964.6,   16.7,   90.5,    0.00,   -0.00,    0.0,  -45.2
00:30:10,  965.1,   22.5,   90.5,    0.00,   -0.10,    0.0,  -33.2
00:30:20,  964.8,   28.0,   90.6,    0.05,   -0.43,    0.0,  -28.9
00:30:30,  965.1,   24.2,   90.6,   -0.00,   -0.00,    0.0,  -49.1
00:30:40,  964.4,   26.9,   90.8,   -0.00,   -0.00,    0.0,  -52.8
00:30:50,  965.0,   24.7,   90.8,   -0.00,   -0.00,    0.0,  -56.9
00:31:00,  964.6,   27.4,   90.9,   -0.00,   -0.36,    0.0,  -43.5
00:31:10,  964.5,   26.3,   90.6,    0.00,   -0.00,    0.0,  -25.0
00:31:20,  964.5,   26.1,   90.5,   -0.00,   -0.00,    0.0,  -51.7
00:31:30,  964.5,   26.8,   90.5,   -0.00,   -0.00,    0.0,  -55.0
00:31:40,  964.5,   27.2,   90.3,    0.00,   -0.00,    0.0,  -57.3
00:31:50,  964.7,   27.4,   90.1,    0.04,   -0.37,    0.0,  -32.5
00:32:00,  964.5,   27.0,   89.8,    0.00,   -0.00,    0.0,  -27.4
00:32:10,  965.1,   24.1,   89.6,   -0.00,   -0.00,    0.0,  -42.5
00:32:20,  964.3,   26.0,   89.6,    0.00,   -0.00,    0.0,  -28.4
00:32:30,  964.5,   26.4,   89.5,   -0.00,   -0.00,    0.0,  -47.6
00:32:40,  964.4,   26.7,   89.5,   -0.00,   -0.00,    0.0,  -54.5
00:32:50,  964.5,   26.9,   89.4,    0.00,   -0.00,    0.0,  -57.3
00:33:00,  964.6,   22.7,   89.2,   -0.00,   -0.09,    0.0,  -55.6
00:33:10,  964.4,   27.2,   89.2,    0.00,   -0.00,    0.0,  -41.8
00:33:20,  965.1,   23.3,   89.1,    0.03,   -0.21,    0.0,  -28.4
00:33:30,  965.1,   22.7,   89.0,    0.00,   -0.06,    0.0,  -25.4
00:33:40,  964.7,   27.2,   89.0,   -0.00,   -0.05,    0.0,  -29.7
00:33:50,  964.3,   24.2,   88.8,    0.00,   -0.00,    0.0,  -28.9
00:34:00,  964.6,   24.0,   88.6,    0.00,   -0.00,    0.0,  -28.7
00:34:10,  965.0,   23.4,   88.3,    0.00,   -0.00,    0.0,  -23.1
00:34:20,  964.6,   28.2,   88.3,    0.00,   -0.22,    0.0,  -28.7
00:34:30,  964.5,   26.0,   88.2,    0.00,   -0.00,    0.0,  -23.5
00:34:40,  965.2,   23.0,   88.1,    0.04,   -0.32,    0.0,  -22.4
00:34:50,  964.5,   26.2,   88.1,    0.00,   -0.00,    0.0,  -23.3
00:35:00,  964.4,   23.5,   88.0,    0.00,   -0.00,    0.0,  -26.3
00:35:10,  964.7,   27.2,   88.1,   -0.00,   -0.00,    0.0,  -30.8
00:35:20,  964.8,   27.3,   88.6,   -0.00,   -0.00,    0.0,  -35.3
00:35:30,  964.7,   27.3,   88.9,   -0.00,   -0.00,    0.0,  -29.9
00:35:40,  964.5,   17.6,   89.0,    0.02,   -0.21,    0.0,  -31.5
00:35:50,  964.8,   24.2,   89.1,    0.00,   -0.00,    0.0,  -28.2
00:36:00,  965.1,   23.0,   89.3,    0.00,   -0.03,    0.0,  -23.7
00:36:10,  964.7,   23.4,   89.3,    0.00,   -0.15,    0.0,  -35.3
00:36:20,  965.1,   22.8,   89.0,    0.00,   -0.00,    0.0,  -26.7
00:36:30,  964.6,   17.7,   88.9,    0.03,   -0.23,    0.0,  -31.2
00:36:40,  964.7,   27.2,   88.9,   -0.00,   -0.00,    0.0,  -34.3
00:36:50,  964.4,   14.3,   88.8,    0.00,   -0.00,    0.0,  -36.9
00:37:00,  964.6,   28.1,   88.8,    0.00,   -0.02,    0.0,  -30.2
00:37:10,  964.6,   25.6,   88.6,    0.02,   -0.10,    0.0,  -27.6
00:37:20,  964.6,   14.2,   88.5,    0.00,   -0.00,    0.0,  -29.9
00:37:30,  964.5,   22.9,   88.5,    0.00,   -0.18,    0.0,  -31.0
00:37:40,  964.5,   26.4,   88.5,    0.00,   -0.00,    0.0,  -27.1
00:37:50,  964.8,   27.1,   88.5,    0.04,   -0.38,    0.0,  -31.0
00:38:00,  964.5,   27.7,   88.4,    0.00,   -0.00,    0.0,  -41.6
00:38:10,  964.7,   27.3,   88.3,   -0.00,   -0.00,    0.0,  -36.6
00:38:20,  964.7,   23.7,   88.3,    0.05,   -0.43,    0.0,  -29.9
00:38:30,  964.6,   26.6,   88.2,    0.00,   -0.00,    0.0,  -55.8
00:38:40,  965.1,   23.7,   88.3,    0.05,   -0.38,    0.0,  -26.9
00:38:50,  964.7,   23.0,   88.2,   -0.00,   -0.00,    0.0,  -49.6
00:39:00,  964.7,   27.1,   88.0,   -0.00,   -0.04,    0.0,  -32.8
00:39:10,  964.6,   26.6,   87.9,    0.00,   -0.00,    0.0,  -27.8
00:39:20,  964.5,   26.8,   87.9,   -0.00,   -0.00,    0.0,  -39.9
00:39:30,  964.5,   14.3,   88.2,    0.00,   -0.00,    0.0,  -33.4
00:39:40,  964.8,   26.2,   88.5,    0.05,   -0.44,    0.0,  -30.4
00:39:50,  964.4,   27.1,   88.6,   -0.00,   -0.00,    0.0,  -43.7
00:40:00,  964.4,   25.9,   88.7,   -0.00,   -0.00,    0.0,  -48.0
00:40:10,  964.7,   22.4,   88.8,   -0.00,   -0.07,    0.0,  -51.5
00:40:20,  964.6,   27.6,   88.8,    0.00,   -0.00,    0.0,  -52.8
00:40:30,  965.2,   25.1,   88.7,   -0.00,   -0.00,    0.0,  -47.0
00:40:40,  964.6,   27.1,   88.7,   -0.01,   -0.14,    0.0,  -32.3
00:40:50,  964.7,   27.8,   88.4,    0.00,   -0.23,    0.0,  -25.4
00:41:00,  964.5,   24.7,   88.3,    0.04,   -0.40,    0.0,  -25.9
00:41:10,  964.6,   27.2,   88.4,    0.01,   -0.41,    0.0,  -39.0
00:41:20,  964.5,   25.7,   88.3,    0.01,   -0.07,    0.0,  -20.9
00:41:30,  964.6,   14.2,   88.3,    0.00,   -0.00,    0.0,  -28.0
00:41:40,  964.5,   27.1,   88.0,   -0.00,   -0.00,    0.0,  -52.4
00:41:50,  964.7,   27.3,   87.9,    0.04,   -0.39,    0.0,  -30.8
00:42:00,  964.7,   26.2,   87.9,   -0.00,   -0.03,    0.0,  -29.5
00:42:10,  964.5,   27.5,   87.8,    0.00,   -0.00,    0.0,  -53.9
00:42:20,  965.0,   25.3,   87.7,   -0.00,   -0.00,    0.0,  -48.5
00:42:30,  964.5,   27.0,   88.2,    0.00,   -0.00,    0.0,  -41.6
00:42:40,  964.6,   27.2,   88.4,    0.00,   -0.00,    0.0,  -41.4
00:42:50,  964.6,   27.2,   88.6,    0.00,   -0.00,    0.0,  -51.3
00:43:00,  964.9,   22.7,   88.6,   -0.00,   -0.00,    0.0,  -40.7
00:43:10,  965.3,   25.2,   88.7,   -0.00,   -0.00,    0.0,  -50.0
00:43:20,  964.5,   26.7,   88.5,   -0.00,   -0.00,    0.0,  -53.9
00:43:30,  964.7,   27.7,   88.2,    0.04,   -0.38,    0.0,  -31.9
00:43:40,  964.6,   17.1,   88.2,    0.00,   -0.00,    0.0,  -33.2
00:43:50,  964.5,   27.2,   88.0,   -0.00,   -0.00,    0.0,  -53.4
00:44:00,  965.1,   23.1,   87.7,    0.03,   -0.20,    0.0,  -27.8
00:44:10,  965.0,   23.2,   87.6,   -0.00,   -0.00,    0.0,  -56.5
00:44:20,  964.7,   27.8,   87.5,   -0.00,   -0.04,    0.0,  -51.9
00:44:30,  964.6,   27.3,   87.7,   -0.00,   -0.00,    0.0,  -52.1
00:44:40,  964.8,   25.4,   88.2,   -0.00,   -0.00,    0.0,  -43.5
00:44:50,  964.9,   21.9,   88.5,   -0.00,   -0.20,    0.0,  -25.6
00:45:00,  964.4,   26.5,   88.5,    0.00,   -0.00,    0.0,  -51.5
00:45:10,  964.7,   22.8,   88.4,    0.00,   -0.24,    0.0,  -29.1
00:45:20,  964.7,   23.7,   88.8,   -0.00,   -0.02,    0.0,  -37.9
00:45:30,  964.6,   23.7,   89.0,   -0.00,   -0.04,    0.0,  -53.2
00:45:40,  964.6,   24.9,   89.2,    0.03,   -0.17,    0.0,  -25.0
00:45:50,  964.7,   18.9,   89.4,    0.00,   -0.00,    0.0,  -28.7
00:46:00,  964.5,   14.9,   89.4,    0.00,   -0.00,    0.0,  -30.2
00:46:10,  964.6,   21.2,   89.4,   -0.00,   -0.05,    0.0,  -31.0
00:46:20,  964.7,   27.1,   89.7,   -0.00,   -0.00,    0.0,  -32.1
00:46:30,  964.7,   27.1,   90.1,   -0.00,   -0.00,    0.0,  -29.5
00:46:40,  964.6,   18.0,   90.2,    0.00,   -0.00,    0.0,  -28.0
00:46:50,  964.5,   28.2,   90.4,   -0.00,   -0.19,    0.0,  -23.3
00:47:00,  965.0,   25.7,   90.4,   -0.00,   -0.00,    0.0,  -51.1
00:47:10,  964.5,   26.8,   90.8,    0.00,   -0.00,    0.0,  -55.6
00:47:20,  964.6,   26.8,   90.9,    0.04,   -0.37,    0.0,  -34.7
00:47:30,  964.8,   21.6,   90.9,    0.00,   -0.16,    0.0,  -20.9
00:47:40,  964.7,   27.1,   90.8,   -0.00,   -0.00,    0.0,  -34.0
00:47:50,  965.1,   23.3,   90.6,   -0.00,   -0.00,    0.0,  -38.4
00:48:00,  964.9,   25.0,   90.6,   -0.00,   -0.00,    0.0,  -45.2
00:48:10,  964.6,   27.3,   90.7,    0.00,   -0.00,    0.0,  -55.4
00:48:20,  964.5,   27.4,   90.7,    0.00,   -0.00,    0.0,  -44.8
00:48:30,  964.5,   25.1,   90.8,    0.03,   -0.18,    0.0,  -28.2
00:48:40,  964.4,   14.8,   91.1,    0.00,   -0.00,    0.0,  -33.2
00:48:50,  964.5,   26.8,   91.2,   -0.00,   -0.00,    0.0,  -54.9
00:49:00,  964.7,   27.1,   91.3,    0.03,   -0.33,    0.0,  -29.3
00:49:10,  964.4,   14.8,   91.3,    0.00,   -0.00,    0.0,  -28.7
00:49:20,  964.6,   27.1,   91.4,    0.02,   -0.42,    0.0,  -44.4
00:49:30,  964.6,   27.2,   91.5,    0.00,   -0.00,    0.0,  -49.8
00:49:40,  964.7,   27.6,   91.6,   -0.00,   -0.00,    0.0,  -34.7
00:49:50,  964.8,   22.1,   91.5,    0.00,   -0.15,    0.0,  -25.9
00:50:00,  964.6,   26.5,   91.6,    0.00,   -0.00,    0.0,  -31.9
00:50:10,  964.5,   26.8,   91.6,    0.00,   -0.00,    0.0,  -50.9
00:50:20,  964.7,   21.8,   91.6,    0.00,   -0.22,    0.0,  -26.3
00:50:30,  964.4,   26.9,   91.6,    0.00,   -0.00,    0.0,  -51.9
00:50:40,  964.7,   27.2,   91.7,    0.02,   -0.28,    0.0,  -33.4
00:50:50,  964.6,   27.5,   91.7,    0.00,   -0.00,    0.0,  -48.0
00:51:00,  964.5,   17.7,   91.9,    0.03,   -0.22,    0.0,  -33.0
00:51:10,  965.1,   25.7,   91.8,   -0.00,   -0.00,    0.0,  -50.9
00:51:20,  964.8,   26.7,   91.9,    0.03,   -0.31,    0.0,  -29.7
00:51:30,  964.9,   23.2,   91.9,    0.04,   -0.39,    0.0,  -28.2
00:51:40,  965.1,   24.4,   91.8,   -0.00,   -0.00,    0.0,  -44.0
00:51:50,  964.6,   23.3,   91.9,    0.02,   -0.18,    0.0,  -34.0
00:52:00,  964.5,   14.2,   92.0,    0.00,   -0.00,    0.0,  -34.5
00:52:10,  964.7,   23.4,   92.1,   -0.00,   -0.00,    0.0,  -35.5
00:52:20,  964.3,   26.1,   92.1,   -0.00,   -0.00,    0.0,  -52.1
00:52:30,  964.5,   26.6,   92.2,    0.00,   -0.00,    0.0,  -41.8
00:52:40,  964.6,   23.4,   92.3,   -0.00,   -0.04,    0.0,  -38.4
00:52:50,  964.5,   26.3,   92.3,   -0.00,   -0.01,    0.0,  -37.5
00:53:00,  964.8,   26.1,   92.2,   -0.00,   -0.00,    0.0,  -41.4
00:53:10,  964.6,   26.3,   92.2,   -0.00,   -0.04,    0.0,  -40.7
00:53:20,  964.7,   27.3,   92.2,    0.04,   -0.39,    0.0,  -29.3
00:53:30,  964.6,   26.9,   91.9,   -0.00,   -0.00,    0.0,  -34.9
00:53:40,  964.8,   27.3,   91.7,    0.05,   -0.44,    0.0,  -31.2
00:53:50,  964.7,   23.5,   91.5,   -0.00,   -0.03,    0.0,  -53.0
00:54:00,  964.6,   26.8,   91.4,    0.00,   -0.00,    0.0,  -51.7
00:54:10,  964.5,   27.2,   91.3,    0.00,   -0.00,    0.0,  -52.6
00:54:20,  964.5,   24.5,   91.3,    0.03,   -0.21,    0.0,  -25.2
00:54:30,  964.7,   26.9,   91.3,   -0.00,   -0.00,    0.0,  -32.8
00:54:40,  965.0,   23.8,   91.4,   -0.00,   -0.00,    0.0,  -51.5
00:54:50,  964.5,   27.3,   91.6,    0.00,   -0.00,    0.0,  -25.9
00:55:00,  965.2,   21.3,   91.4,    0.00,   -0.17,    0.0,  -26.7
00:55:10,  964.7,   27.6,   91.3,   -0.00,   -0.00,    0.0,  -31.7
00:55:20,  965.0,   24.2,   91.0,   -0.00,   -0.00,    0.0,  -48.0
00:55:30,  964.6,   25.6,   90.8,    0.05,   -0.42,    0.0,  -27.1
00:55:40,  964.6,   28.0,   90.8,    0.03,   -0.23,    0.0,  -22.8
00:55:50,  964.5,   27.3,   90.5,    0.00,   -0.00,    0.0,  -25.4
00:56:00,  964.4,   26.1,   90.1,    0.00,   -0.00,    0.0,  -28.4
00:56:10,  964.5,   15.9,   90.0,    0.00,   -0.00,    0.0,  -27.8
00:56:20,  964.6,   27.4,   90.0,    0.00,   -0.06,    0.0,  -47.8
00:56:30,  965.2,   21.9,   90.0,    0.03,   -0.24,    0.0,  -25.0
00:56:40,  964.7,   23.1,   90.1,   -0.00,   -0.00,    0.0,  -41.2
00:56:50,  964.6,   26.0,   90.0,   -0.00,   -0.00,    0.0,  -45.9
00:57:00,  964.5,   26.6,   90.4,    0.00,   -0.00,    0.0,  -54.5
00:57:10,  964.6,   26.8,   90.7,    0.00,   -0.00,    0.0,  -38.4
00:57:20,  964.7,   26.6,   90.7,    0.03,   -0.30,    0.0,  -36.0
00:57:30,  964.5,   25.6,   90.6,    0.00,   -0.00,    0.0,  -22.0
00:57:40,  964.5,   18.0,   90.7,   -0.00,   -0.23,    0.0,  -33.8
00:57:50,  964.7,   25.7,   90.7,   -0.00,   -0.04,    0.0,  -53.2
00:58:00,  964.6,   27.5,   90.9,   -0.00,   -0.05,    0.0,  -50.2
00:58:10,  964.8,   22.2,   91.0,   -0.00,   -0.00,    0.0,  -52.4
00:58:20,  964.4,   26.2,   91.1,   -0.00,   -0.00,    0.0,  -55.0
00:58:30,  964.7,   25.9,   91.1,   -0.00,   -0.00,    0.0,  -36.6
00:58:40,  964.7,   26.8,   91.0,   -0.00,   -0.00,    0.0,  -36.2
00:58:50,  964.9,   23.0,   90.8,   -0.00,   -0.00,    0.0,  -48.0
00:59:00,  964.4,   26.1,   90.6,   -0.00,   -0.00,    0.0,  -54.1
00:59:10,  964.5,   25.8,   90.3,   -0.00,   -0.00,    0.0,  -55.8
00:59:20,  965.0,   25.3,   90.2,   -0.00,   -0.00,    0.0,  -48.3